N5552G KAJO-KL18

Flight info

Callsign N5552G
Flight time N/A
Altitude 7000
Route PDZ V186 WESIN UDHAY
Aircraft SR22/L-SGRY/S

Departure

Time 2026-04-29 04:55
Airport Corona Municipal Airport (KAJO)

Arrival

Time N/A
Airport KL18
Time Latitude Longitude Altitude Speed Heading
2026-04-29 04:34 33.89622 -117.59749 534 ft 0 kts 91°
2026-04-29 04:46 33.89645 -117.59740 534 ft 7 kts
2026-04-29 04:46 33.89694 -117.59739 535 ft 1 kts
2026-04-29 04:46 33.89700 -117.59739 535 ft 2 kts
2026-04-29 04:46 33.89718 -117.59723 536 ft 7 kts 75°
2026-04-29 04:47 33.89732 -117.59719 536 ft 0 kts 311°
2026-04-29 04:50 33.89732 -117.59720 536 ft 0 kts 311°
2026-04-29 04:50 33.89756 -117.59728 537 ft 8 kts 356°
2026-04-29 04:51 33.89773 -117.59864 533 ft 40 kts 269°
2026-04-29 04:51 33.89765 -117.60387 547 ft 80 kts 270°
2026-04-29 04:51 33.89774 -117.61074 858 ft 79 kts 269°
2026-04-29 04:51 33.89809 -117.61755 1033 ft 87 kts 298°
2026-04-29 04:52 33.90384 -117.61963 984 ft 101 kts 15°
2026-04-29 04:52 33.90835 -117.61387 979 ft 92 kts 77°
2026-04-29 04:52 33.90861 -117.60641 1003 ft 89 kts 89°
2026-04-29 04:52 33.90889 -117.59906 1001 ft 84 kts 85°
2026-04-29 04:53 33.90929 -117.59200 932 ft 84 kts 83°
2026-04-29 04:53 33.90772 -117.58552 885 ft 84 kts 150°
2026-04-29 04:53 33.90247 -117.58578 843 ft 79 kts 211°
2026-04-29 04:53 33.89874 -117.59027 772 ft 78 kts 244°
2026-04-29 04:54 33.89776 -117.59667 584 ft 78 kts 269°
2026-04-29 04:54 33.89768 -117.60254 527 ft 61 kts 269°
2026-04-29 04:54 33.89764 -117.60849 638 ft 77 kts 270°
2026-04-29 04:54 33.89747 -117.61444 1026 ft 68 kts 263°
2026-04-29 04:55 33.89589 -117.62009 1257 ft 78 kts 223°
2026-04-29 04:55 33.89025 -117.62001 1433 ft 98 kts 144°
2026-04-29 04:55 33.88651 -117.61264 1661 ft 107 kts 116°
2026-04-29 04:55 33.88215 -117.60514 1898 ft 109 kts 133°
2026-04-29 04:56 33.87707 -117.59825 2135 ft 112 kts 129°
2026-04-29 04:56 33.87213 -117.59085 2363 ft 114 kts 131°
2026-04-29 04:56 33.86667 -117.58384 2599 ft 116 kts 133°
2026-04-29 04:56 33.86119 -117.57671 2854 ft 116 kts 134°
2026-04-29 04:57 33.85575 -117.56960 3090 ft 117 kts 133°
2026-04-29 04:57 33.85024 -117.56235 3319 ft 118 kts 133°
2026-04-29 04:57 33.84464 -117.55505 3497 ft 123 kts 133°
2026-04-29 04:57 33.83846 -117.54701 3510 ft 138 kts 133°
2026-04-29 04:58 33.83191 -117.53846 3672 ft 135 kts 133°
2026-04-29 04:58 33.82581 -117.53043 3966 ft 125 kts 133°
2026-04-29 04:58 33.82008 -117.52287 4254 ft 119 kts 133°
2026-04-29 04:58 33.81465 -117.51565 4540 ft 114 kts 133°
2026-04-29 04:59 33.80946 -117.50873 4832 ft 109 kts 133°
2026-04-29 04:59 33.80451 -117.50210 5110 ft 106 kts 133°
2026-04-29 04:59 33.79965 -117.49552 5388 ft 104 kts 133°
2026-04-29 04:59 33.79465 -117.48867 5496 ft 119 kts 133°
2026-04-29 05:00 33.78875 -117.48065 5510 ft 135 kts 133°
2026-04-29 05:00 33.78222 -117.47178 5502 ft 147 kts 132°
2026-04-29 05:00 33.77526 -117.46246 5512 ft 153 kts 133°
2026-04-29 05:00 33.76802 -117.45276 5508 ft 157 kts 133°
2026-04-29 05:01 33.76067 -117.44291 5503 ft 160 kts 133°
2026-04-29 05:01 33.75322 -117.43288 5475 ft 161 kts 133°
2026-04-29 05:01 33.74573 -117.42274 5458 ft 162 kts 133°
2026-04-29 05:01 33.73821 -117.41258 5456 ft 163 kts 133°
2026-04-29 05:02 33.73067 -117.40234 5458 ft 163 kts 133°
2026-04-29 05:02 33.72316 -117.39215 5462 ft 163 kts 133°
2026-04-29 05:02 33.71566 -117.38196 5462 ft 163 kts 132°
2026-04-29 05:02 33.70818 -117.37177 5462 ft 163 kts 132°
2026-04-29 05:03 33.69994 -117.36263 5459 ft 162 kts 145°
2026-04-29 05:03 33.69088 -117.35464 5459 ft 162 kts 144°
2026-04-29 05:03 33.68187 -117.34656 5448 ft 161 kts 144°
2026-04-29 05:03 33.67298 -117.33860 5448 ft 161 kts 144°
2026-04-29 05:04 33.66401 -117.33057 5450 ft 160 kts 144°
2026-04-29 05:04 33.65504 -117.32251 5368 ft 164 kts 144°
2026-04-29 05:04 33.64551 -117.31542 5180 ft 159 kts 162°
2026-04-29 05:04 33.63483 -117.31245 4986 ft 157 kts 167°
2026-04-29 05:05 33.62424 -117.30943 4789 ft 156 kts 167°
2026-04-29 05:05 33.61367 -117.30655 4586 ft 155 kts 167°
2026-04-29 05:05 33.60316 -117.30369 4386 ft 155 kts 167°
2026-04-29 05:05 33.59267 -117.30081 4186 ft 155 kts 167°
2026-04-29 05:06 33.58218 -117.29797 3988 ft 153 kts 167°
2026-04-29 05:06 33.57192 -117.29509 3789 ft 150 kts 164°
2026-04-29 05:06 33.56199 -117.29139 3594 ft 149 kts 162°
2026-04-29 05:06 33.55251 -117.28651 3487 ft 148 kts 156°
2026-04-29 05:07 33.54312 -117.28148 3485 ft 148 kts 156°
2026-04-29 05:07 33.53365 -117.27641 3489 ft 150 kts 156°
2026-04-29 05:07 33.52413 -117.27133 3493 ft 150 kts 156°
2026-04-29 05:07 33.51454 -117.26620 3496 ft 151 kts 156°
2026-04-29 05:08 33.50493 -117.26103 3501 ft 151 kts 156°
2026-04-29 05:08 33.49527 -117.25589 3500 ft 152 kts 156°
2026-04-29 05:08 33.48570 -117.25075 3504 ft 153 kts 156°
2026-04-29 05:08 33.47574 -117.24562 3386 ft 160 kts 162°
2026-04-29 05:09 33.46467 -117.24295 3211 ft 165 kts 171°
2026-04-29 05:09 33.45330 -117.24051 3043 ft 167 kts 170°
2026-04-29 05:09 33.44180 -117.23803 2872 ft 168 kts 170°
2026-04-29 05:09 33.43051 -117.23559 2697 ft 162 kts 170°
2026-04-29 05:10 33.41970 -117.23325 2514 ft 150 kts 171°
2026-04-29 05:10 33.40997 -117.23109 2319 ft 135 kts 170°
2026-04-29 05:10 33.40092 -117.23076 2125 ft 127 kts 185°
2026-04-29 05:10 33.39231 -117.23119 1928 ft 122 kts 183°
2026-04-29 05:11 33.38407 -117.23155 1736 ft 116 kts 183°
2026-04-29 05:11 33.37640 -117.23240 1637 ft 105 kts 188°
2026-04-29 05:11 33.36942 -117.23347 1531 ft 100 kts 189°
2026-04-29 05:11 33.36258 -117.23465 1379 ft 96 kts 189°
2026-04-29 05:12 33.35642 -117.23596 1255 ft 86 kts 193°
2026-04-29 05:12 33.35067 -117.23705 1211 ft 81 kts 189°
2026-04-29 05:12 33.34563 -117.23816 1273 ft 73 kts 208°
2026-04-29 05:12 33.34265 -117.24328 1179 ft 77 kts 255°
2026-04-29 05:13 33.34371 -117.24886 992 ft 71 kts 313°
2026-04-29 05:13 33.34790 -117.25162 848 ft 70 kts 352°
2026-04-29 05:13 33.35261 -117.25090 729 ft 64 kts 12°
2026-04-29 05:13 33.35659 -117.24969 761 ft 65 kts 14°
2026-04-29 05:14 33.36094 -117.24809 960 ft 64 kts 15°
2026-04-29 05:14 33.36546 -117.24657 1067 ft 78 kts
2026-04-29 05:14 33.37001 -117.24317 1221 ft 88 kts 66°
2026-04-29 05:14 33.36801 -117.23656 1429 ft 100 kts 155°
2026-04-29 05:15 33.36111 -117.23643 1456 ft 98 kts 187°
2026-04-29 05:15 33.35458 -117.23723 1399 ft 90 kts 187°
2026-04-29 05:15 33.34835 -117.23785 1359 ft 92 kts 186°
2026-04-29 05:15 33.34215 -117.23870 1323 ft 87 kts 206°
2026-04-29 05:16 33.33917 -117.24432 1218 ft 83 kts 274°
2026-04-29 05:16 33.34125 -117.25095 966 ft 85 kts 313°
2026-04-29 05:16 33.34607 -117.25266 894 ft 71 kts
2026-04-29 05:16 33.35086 -117.25144 760 ft 66 kts 11°
2026-04-29 05:17 33.35468 -117.25035 732 ft 46 kts 15°
2026-04-29 05:17 33.35841 -117.24904 820 ft 62 kts 15°
2026-04-29 05:17 33.36251 -117.24729 1029 ft 64 kts 18°
2026-04-29 05:17 33.36652 -117.24472 1243 ft 67 kts 35°
2026-04-29 05:18 33.36692 -117.23950 1428 ft 75 kts 130°
2026-04-29 05:18 33.36080 -117.23753 1292 ft 110 kts 189°
2026-04-29 05:18 33.35329 -117.23964 1250 ft 108 kts 196°
2026-04-29 05:18 33.34659 -117.24161 1239 ft 94 kts 195°
2026-04-29 05:19 33.34096 -117.24355 1235 ft 70 kts 219°
2026-04-29 05:19 33.33973 -117.24918 1185 ft 77 kts 297°
2026-04-29 05:19 33.34385 -117.25263 991 ft 72 kts 346°
2026-04-29 05:19 33.34859 -117.25212 824 ft 66 kts
2026-04-29 05:20 33.35273 -117.25087 730 ft 56 kts 11°
2026-04-29 05:20 33.35629 -117.24984 753 ft 62 kts 12°
2026-04-29 05:20 33.36097 -117.24829 899 ft 76 kts 15°
2026-04-29 05:20 33.36685 -117.24655 1093 ft 92 kts
2026-04-29 05:21 33.37314 -117.24526 1398 ft 92 kts
2026-04-29 05:21 33.37983 -117.24460 1634 ft 102 kts
2026-04-29 05:21 33.38711 -117.24444 1898 ft 108 kts 358°
2026-04-29 05:21 33.39486 -117.24484 2132 ft 114 kts 356°
2026-04-29 05:22 33.40297 -117.24533 2383 ft 118 kts 356°
2026-04-29 05:22 33.41130 -117.24592 2642 ft 121 kts 356°
2026-04-29 05:22 33.41980 -117.24657 2894 ft 123 kts 355°
2026-04-29 05:22 33.42844 -117.24720 3148 ft 125 kts 355°
2026-04-29 05:23 33.43716 -117.24784 3404 ft 126 kts 356°
2026-04-29 05:23 33.44583 -117.24849 3695 ft 124 kts 356°
2026-04-29 05:23 33.45437 -117.24909 3988 ft 122 kts 356°
2026-04-29 05:23 33.46281 -117.24964 4282 ft 121 kts 355°
2026-04-29 05:24 33.47132 -117.25016 4478 ft 130 kts 355°
2026-04-29 05:24 33.48075 -117.25169 4492 ft 145 kts 342°
2026-04-29 05:24 33.49075 -117.25552 4484 ft 156 kts 342°
2026-04-29 05:24 33.50133 -117.25937 4484 ft 161 kts 341°
2026-04-29 05:25 33.51212 -117.26337 4480 ft 163 kts 341°
2026-04-29 05:25 33.52301 -117.26743 4476 ft 165 kts 342°
2026-04-29 05:25 33.53400 -117.27152 4476 ft 165 kts 341°
2026-04-29 05:25 33.54499 -117.27563 4473 ft 166 kts 341°
2026-04-29 05:26 33.55601 -117.27977 4470 ft 166 kts 341°
2026-04-29 05:26 33.56703 -117.28392 4465 ft 166 kts 341°
2026-04-29 05:26 33.57800 -117.28822 4456 ft 167 kts 341°
2026-04-29 05:26 33.58899 -117.29270 4453 ft 167 kts 341°
2026-04-29 05:27 33.60003 -117.29721 4451 ft 167 kts 341°
2026-04-29 05:27 33.62060 -117.30982 4445 ft 167 kts 323°
2026-04-29 05:27 33.62665 -117.31557 4444 ft 167 kts 321°
2026-04-29 05:28 33.63576 -117.32426 4444 ft 167 kts 321°
2026-04-29 05:28 33.64778 -117.33588 4442 ft 167 kts 321°
2026-04-29 05:28 33.65685 -117.34465 4431 ft 167 kts 321°
2026-04-29 05:28 33.66297 -117.35058 4430 ft 168 kts 321°
2026-04-29 05:29 33.67204 -117.35939 4439 ft 168 kts 321°
2026-04-29 05:29 33.68108 -117.36818 4439 ft 167 kts 321°
2026-04-29 05:29 33.69010 -117.37704 4439 ft 167 kts 319°
2026-04-29 05:29 33.69842 -117.38678 4439 ft 167 kts 314°
2026-04-29 05:30 33.70655 -117.39653 4439 ft 167 kts 315°
2026-04-29 05:30 33.71476 -117.40643 4439 ft 167 kts 315°
2026-04-29 05:30 33.72298 -117.41637 4439 ft 167 kts 314°
2026-04-29 05:30 33.73115 -117.42630 4433 ft 167 kts 314°
2026-04-29 05:31 33.73936 -117.43623 4436 ft 167 kts 314°
2026-04-29 05:31 33.74803 -117.44556 4436 ft 167 kts 321°
2026-04-29 05:31 33.75706 -117.45439 4482 ft 168 kts 322°
2026-04-29 05:31 33.76685 -117.46203 4484 ft 168 kts 329°
2026-04-29 05:32 33.77676 -117.46944 4488 ft 168 kts 328°
2026-04-29 05:32 33.78673 -117.47689 4430 ft 172 kts 328°
2026-04-29 05:32 33.79694 -117.48443 4180 ft 168 kts 328°
2026-04-29 05:32 33.80669 -117.49158 3928 ft 161 kts 328°
2026-04-29 05:33 33.81614 -117.49851 3674 ft 157 kts 332°
2026-04-29 05:33 33.82638 -117.50267 3426 ft 155 kts 345°
2026-04-29 05:33 33.83642 -117.50702 3194 ft 152 kts 337°
2026-04-29 05:33 33.84614 -117.51174 2968 ft 150 kts 338°
2026-04-29 05:34 33.85578 -117.51637 2742 ft 148 kts 338°
2026-04-29 05:34 33.86535 -117.52087 2517 ft 147 kts 338°
2026-04-29 05:34 33.87485 -117.52537 2289 ft 146 kts 338°
2026-04-29 05:34 33.88400 -117.52972 2156 ft 140 kts 336°
2026-04-29 05:35 33.89138 -117.53657 1846 ft 134 kts 308°
2026-04-29 05:35 33.89596 -117.54563 1539 ft 114 kts 290°
2026-04-29 05:35 33.89767 -117.55401 1357 ft 97 kts 277°
2026-04-29 05:35 33.89817 -117.56189 1180 ft 90 kts 271°
2026-04-29 05:36 33.89817 -117.56935 1094 ft 92 kts 271°
2026-04-29 05:36 33.89798 -117.57719 950 ft 93 kts 269°
2026-04-29 05:36 33.89787 -117.58506 787 ft 95 kts 271°
2026-04-29 05:36 33.89778 -117.59259 629 ft 88 kts 271°
2026-04-29 05:37 33.89771 -117.59986 535 ft 79 kts 271°
2026-04-29 05:37 33.89768 -117.60597 525 ft 82 kts 272°
2026-04-29 05:37 33.89757 -117.61321 701 ft 91 kts 271°
2026-04-29 05:37 33.89812 -117.62096 1004 ft 95 kts 296°
2026-04-29 05:38 33.90405 -117.62455 1144 ft 104 kts
2026-04-29 05:38 33.90970 -117.61942 1182 ft 112 kts 66°
2026-04-29 05:38 33.91066 -117.61083 1103 ft 98 kts 88°
2026-04-29 05:38 33.91074 -117.60258 996 ft 96 kts 88°
2026-04-29 05:39 33.91063 -117.59477 1040 ft 91 kts 102°
2026-04-29 05:39 33.90756 -117.58889 950 ft 85 kts 151°
2026-04-29 05:39 33.90176 -117.58863 839 ft 87 kts 211°
2026-04-29 05:39 33.89812 -117.59410 667 ft 88 kts 255°
2026-04-29 05:40 33.89769 -117.60081 531 ft 71 kts 271°
2026-04-29 05:40 33.89761 -117.60670 533 ft 82 kts 270°
2026-04-29 05:40 33.89770 -117.61384 721 ft 88 kts 273°
2026-04-29 05:40 33.89902 -117.62092 991 ft 90 kts 316°
2026-04-29 05:41 33.90534 -117.62141 1133 ft 102 kts 29°
2026-04-29 05:41 33.90820 -117.61337 1166 ft 109 kts 85°
2026-04-29 05:41 33.90825 -117.60514 1078 ft 91 kts 92°
2026-04-29 05:41 33.90759 -117.59762 1000 ft 91 kts 93°
2026-04-29 05:42 33.90653 -117.59036 1021 ft 88 kts 126°
2026-04-29 05:42 33.90123 -117.58864 788 ft 81 kts 207°
2026-04-29 05:42 33.89807 -117.59352 652 ft 78 kts 258°
2026-04-29 05:42 33.89770 -117.60000 534 ft 72 kts 271°
2026-04-29 05:43 33.89767 -117.60351 522 ft 15 kts 264°
2026-04-29 05:43 33.89755 -117.60373 523 ft 0 kts 214°
2026-04-29 05:43 33.89749 -117.60376 523 ft 6 kts 200°
2026-04-29 05:43 33.89725 -117.60364 524 ft 5 kts 99°
2026-04-29 05:44 33.89728 -117.60296 525 ft 11 kts 94°
2026-04-29 05:44 33.89726 -117.60188 527 ft 13 kts 87°
2026-04-29 05:44 33.89729 -117.60065 530 ft 12 kts 89°
2026-04-29 05:44 33.89731 -117.59948 532 ft 16 kts 88°
2026-04-29 05:45 33.89730 -117.59824 534 ft 10 kts 112°
2026-04-29 05:45 33.89692 -117.59776 534 ft 9 kts 179°
2026-04-29 05:45 33.89627 -117.59771 533 ft 7 kts 133°
2026-04-29 05:45 33.89622 -117.59752 534 ft 0 kts 85°